Location: B�rgermoos
(47.6500°N, 9.0667°E)
Time: 09:35:45
(UTC+00:00)

A-11 Canister half - Pass Details

Date: 07 August 2021
Orbit: 1526 x 1683 km, 47.3° (Epoch: 20 September)

Event Time Altitude Azimuth Distance (km) Brightness Sun altitude
Rises 07:57:59 0° 207° (SSW) 4,904 11.6 36.7°
Reaches altitude 10° 08:01:27 10° 199° (SSW) 3,928 11.2 37.3°
Maximum altitude 08:10:19 36° 137° (SE) 2,433 11.7 38.7°
Drops below altitude 10° 08:19:10 10° 76° (ENE) 3,931 12.0 40.1°
Sets 08:22:37 0° 69° (ENE) 4,908 12.1 40.6°
